| time (UTC) | temp F | wind direction | speed MPH | gust MPH | rain 1hr in | rain 24hr in | rain mn in | humidity % | barometer mb |
| 20260506132029 | 65 | 163 | 2.0 | 9.0 | 0.00 | 0.00 | 0.00 | 74 | 1007.3 |
| 20260506131536 | 65 | 0 | 1.0 | 7.0 | 0.00 | 0.00 | 0.00 | 74 | 1007.3 |
| 20260506131029 | 65 | 0 | 0.0 | 6.0 | 0.00 | 0.00 | 0.00 | 74 | 1007.2 |
| 20260506130529 | 65 | 0 | 2.0 | 6.0 | 0.00 | 0.00 | 0.00 | 74 | 1007.2 |
| 20260506130036 | 65 | 172 | 1.0 | 6.0 | 0.00 | 0.00 | 0.00 | 74 | 1007.3 |
| 20260506125528 | 65 | 0 | 0.0 | 6.0 | 0.00 | 0.00 | 0.00 | 74 | 1007.6 |
| 20260506125028 | 65 | 211 | 2.0 | 6.0 | 0.00 | 0.00 | 0.00 | 74 | 1007.4 |
| 20260506124538 | 65 | 152 | 1.0 | 7.0 | 0.00 | 0.00 | 0.00 | 74 | 1007.5 |
| 20260506124028 | 65 | 167 | 2.0 | 7.0 | 0.00 | 0.00 | 0.00 | 74 | 1007.7 |
| 20260506123528 | 64 | 171 | 2.0 | 5.0 | 0.00 | 0.00 | 0.00 | 74 | 1007.6 |
| 20260506123035 | 64 | 170 | 0.0 | 8.0 | 0.00 | 0.00 | 0.00 | 74 | 1007.6 |
| 20260506122527 | 64 | 0 | 2.0 | 9.0 | 0.00 | 0.00 | 0.00 | 74 | 1007.6 |
| 20260506122030 | 64 | 171 | 3.0 | 9.0 | 0.00 | 0.00 | 0.00 | 74 | 1007.8 |
| 20260506121539 | 64 | 146 | 2.0 | 6.0 | 0.00 | 0.00 | 0.00 | 75 | 1007.7 |
| 20260506121028 | 64 | 165 | 1.0 | 5.0 | 0.00 | 0.00 | 0.00 | 75 | 1007.8 |
| 20260506120529 | 64 | 126 | 0.0 | 5.0 | 0.00 | 0.00 | 0.00 | 75 | 1007.9 |
| 20260506120036 | 64 | 0 | 0.0 | 0.0 | 0.00 | 0.00 | 0.00 | 75 | 1008.0 |
| 20260506115528 | 64 | 0 | 0.0 | 7.0 | 0.00 | 0.00 | 0.00 | 75 | 1008.0 |
| 20260506115028 | 64 | 0 | 0.0 | 9.0 | 0.00 | 0.00 | 0.00 | 75 | 1007.8 |
| 20260506114537 | 64 | 171 | 3.0 | 9.0 | 0.00 | 0.00 | 0.00 | 74 | 1007.8 |
| 20260506114028 | 64 | 184 | 1.0 | 7.0 | 0.00 | 0.00 | 0.00 | 74 | 1007.7 |
| 20260506113529 | 64 | 0 | 0.0 | 7.0 | 0.00 | 0.00 | 0.00 | 75 | 1007.7 |
| 20260506113035 | 64 | 163 | 3.0 | 9.0 | 0.00 | 0.00 | 0.00 | 74 | 1007.8 |
| 20260506112529 | 64 | 155 | 2.0 | 9.0 | 0.00 | 0.00 | 0.00 | 75 | 1007.6 |
| 20260506112028 | 63 | 186 | 1.0 | 7.0 | 0.00 | 0.00 | 0.00 | 75 | 1007.6 |
| 20260506111544 | 63 | 0 | 2.0 | 7.0 | 0.00 | 0.00 | 0.00 | 75 | 1007.7 |
| 20260506111030 | 63 | 187 | 1.0 | 7.0 | 0.00 | 0.00 | 0.00 | 75 | 1007.7 |
| 20260506110528 | 63 | 179 | 2.0 | 7.0 | 0.00 | 0.00 | 0.00 | 75 | 1007.8 |
| 20260506110039 | 63 | 156 | 0.0 | 3.0 | 0.00 | 0.00 | 0.00 | 75 | 1007.8 |
| 20260506105526 | 63 | 155 | 0.0 | 3.0 | 0.00 | 0.00 | 0.00 | 74 | 1007.8 |
| 20260506105026 | 63 | 0 | 0.0 | 6.0 | 0.00 | 0.00 | 0.00 | 74 | 1007.9 |
| 20260506104541 | 63 | 0 | 0.0 | 6.0 | 0.00 | 0.00 | 0.00 | 74 | 1007.7 |
| 20260506104026 | 63 | 175 | 1.0 | 6.0 | 0.00 | 0.00 | 0.00 | 74 | 1007.7 |
| 20260506103526 | 63 | 189 | 0.0 | 4.0 | 0.00 | 0.00 | 0.00 | 74 | 1007.6 |
| 20260506103037 | 63 | 0 | 0.0 | 5.0 | 0.00 | 0.00 | 0.00 | 74 | 1007.4 |
| 20260506102531 | 63 | 162 | 1.0 | 5.0 | 0.00 | 0.00 | 0.00 | 74 | 1007.6 |
| 20260506102027 | 63 | 162 | 1.0 | 5.0 | 0.00 | 0.00 | 0.00 | 73 | 1007.6 |
| 20260506101537 | 64 | 0 | 0.0 | 0.0 | 0.00 | 0.00 | 0.00 | 73 | 1007.5 |
| 20260506101026 | 64 | 0 | 0.0 | 0.0 | 0.00 | 0.00 | 0.00 | 73 | 1007.5 |
| 20260506100529 | 64 | 0 | 0.0 | 0.0 | 0.00 | 0.00 | 0.00 | 73 | 1007.3 |
| 20260506100041 | 64 | 0 | 0.0 | 4.0 | 0.00 | 0.00 | 0.00 | 73 | 1007.4 |
| 20260506095526 | 64 | 0 | 0.0 | 6.0 | 0.00 | 0.00 | 0.00 | 73 | 1007.5 |
| 20260506095026 | 64 | 174 | 1.0 | 6.0 | 0.00 | 0.00 | 0.00 | 73 | 1007.5 |
| 20260506094545 | 64 | 0 | 0.0 | 5.0 | 0.00 | 0.00 | 0.00 | 73 | 1007.6 |
| 20260506094026 | 64 | 242 | 0.0 | 3.0 | 0.00 | 0.00 | 0.00 | 73 | 1007.4 |
| 20260506093526 | 64 | 0 | 0.0 | 3.0 | 0.00 | 0.00 | 0.00 | 72 | 1007.4 |
| 20260506093100 | 64 | 0 | 0.0 | 10.0 | 0.00 | 0.00 | 0.00 | 72 | 1007.4 |
| 20260506092526 | 64 | 153 | 1.0 | 10.0 | 0.00 | 0.00 | 0.00 | 72 | 1007.3 |
| 20260506092026 | 64 | 165 | 0.0 | 5.0 | 0.00 | 0.00 | 0.00 | 72 | 1007.2 |
| 20260506091536 | 64 | 0 | 0.0 | 4.0 | 0.00 | 0.00 | 0.00 | 71 | 1007.3 |
| 20260506091026 | 64 | 0 | 1.0 | 4.0 | 0.00 | 0.00 | 0.00 | 71 | 1007.3 |
| 20260506090526 | 64 | 0 | 1.0 | 6.0 | 0.00 | 0.00 | 0.00 | 71 | 1007.4 |
| 20260506090039 | 64 | 165 | 2.0 | 6.0 | 0.00 | 0.00 | 0.00 | 71 | 1007.3 |
| 20260506085526 | 64 | 167 | 1.0 | 6.0 | 0.00 | 0.00 | 0.00 | 71 | 1007.4 |
| 20260506085026 | 64 | 210 | 2.0 | 7.0 | 0.00 | 0.00 | 0.00 | 70 | 1007.4 |
| 20260506084538 | 65 | 0 | 1.0 | 7.0 | 0.00 | 0.00 | 0.00 | 70 | 1007.4 |
| 20260506084026 | 64 | 160 | 0.0 | 4.0 | 0.00 | 0.00 | 0.00 | 70 | 1007.4 |
| 20260506083526 | 64 | 0 | 0.0 | 7.0 | 0.00 | 0.00 | 0.00 | 71 | 1007.6 |
| 20260506083041 | 64 | 180 | 2.0 | 7.0 | 0.00 | 0.00 | 0.00 | 71 | 1007.5 |
| 20260506082529 | 64 | 178 | 2.0 | 6.0 | 0.00 | 0.00 | 0.00 | 71 | 1007.7 |
| 20260506082026 | 64 | 183 | 1.0 | 6.0 | 0.00 | 0.00 | 0.00 | 70 | 1007.7 |
| 20260506081538 | 64 | 0 | 1.0 | 6.0 | 0.00 | 0.00 | 0.00 | 71 | 1007.7 |
| 20260506081026 | 64 | 180 | 2.0 | 8.0 | 0.00 | 0.00 | 0.00 | 71 | 1007.6 |
| 20260506080526 | 63 | 173 | 3.0 | 8.0 | 0.00 | 0.00 | 0.00 | 71 | 1007.5 |
| 20260506080222 | 63 | 156 | 1.0 | 5.0 | 0.00 | 0.00 | 0.00 | 72 | 1007.6 |
| 20260506073528 | 61 | 0 | 0.0 | 2.0 | 0.00 | 0.00 | 0.00 | 76 | 1007.7 |
| 20260506073035 | 61 | 0 | 0.0 | 2.0 | 0.00 | 0.00 | 0.00 | 75 | 1007.6 |
| 20260506072528 | 61 | 173 | 0.0 | 1.0 | 0.00 | 0.00 | 0.00 | 75 | 1007.5 |
| 20260506072028 | 61 | 0 | 0.0 | 1.0 | 0.00 | 0.00 | 0.00 | 76 | 1007.6 |
| 20260506071541 | 61 | 0 | 0.0 | 0.0 | 0.00 | 0.00 | 0.00 | 76 | 1007.6 |
| 20260506071028 | 61 | 0 | 0.0 | 0.0 | 0.00 | 0.00 | 0.00 | 75 | 1007.7 |
| 20260506070530 | 61 | 0 | 0.0 | 1.0 | 0.00 | 0.00 | 0.00 | 74 | 1007.8 |
| 20260506062029 | 63 | 0 | 0.0 | 0.0 | 0.00 | 0.00 | 0.00 | 71 | 1008.0 |
| 20260506061556 | 63 | 0 | 0.0 | 0.0 | 0.00 | 0.00 | 0.00 | 70 | 1008.0 |
| 20260506061027 | 64 | 0 | 0.0 | 0.0 | 0.00 | 0.00 | 0.00 | 69 | 1008.2 |
| 20260506060528 | 64 | 0 | 0.0 | 0.0 | 0.00 | 0.00 | 0.00 | 69 | 1008.1 |
| 20260506051029 | 67 | 0 | 0.0 | 2.0 | 0.00 | 0.00 | 0.00 | 62 | 1008.4 |
| 20260506050528 | 68 | 0 | 0.0 | 2.0 | 0.00 | 0.00 | 0.00 | 62 | 1008.4 |
| 20260506045029 | 69 | 0 | 0.0 | 3.0 | 0.00 | 0.00 | 0.00 | 59 | 1008.4 |
| 20260506044536 | 69 | 296 | 0.0 | 5.0 | 0.00 | 0.00 | 0.00 | 59 | 1008.5 |
| 20260506044028 | 69 | 209 | 1.0 | 6.0 | 0.00 | 0.00 | 0.00 | 58 | 1008.4 |
| 20260506043528 | 69 | 160 | 2.0 | 6.0 | 0.00 | 0.00 | 0.00 | 58 | 1008.3 |
| 20260506043035 | 69 | 180 | 2.0 | 6.0 | 0.00 | 0.00 | 0.00 | 58 | 1008.4 |
| 20260506042530 | 69 | 0 | 0.0 | 5.0 | 0.00 | 0.00 | 0.00 | 58 | 1008.2 |
| 20260506042027 | 69 | 0 | 1.0 | 4.0 | 0.00 | 0.00 | 0.00 | 58 | 1008.2 |
| 20260506041540 | 69 | 0 | 0.0 | 10.0 | 0.00 | 0.00 | 0.00 | 57 | 1008.3 |
| 20260506041028 | 69 | 168 | 1.0 | 10.0 | 0.00 | 0.00 | 0.00 | 57 | 1008.3 |
| 20260506040528 | 69 | 173 | 2.0 | 6.0 | 0.00 | 0.00 | 0.00 | 56 | 1008.3 |
| 20260506040052 | 70 | 153 | 1.0 | 7.0 | 0.00 | 0.00 | 0.00 | 56 | 1008.2 |
| 20260506035529 | 70 | 160 | 2.0 | 8.0 | 0.00 | 0.00 | 0.00 | 55 | 1008.2 |
| 20260506035028 | 70 | 146 | 3.0 | 8.0 | 0.00 | 0.00 | 0.00 | 54 | 1008.2 |
| 20260506034536 | 70 | 169 | 2.0 | 6.0 | 0.00 | 0.00 | 0.00 | 54 | 1008.1 |
| 20260506034030 | 71 | 178 | 1.0 | 5.0 | 0.00 | 0.00 | 0.00 | 53 | 1008.2 |
| 20260506033528 | 71 | 163 | 2.0 | 6.0 | 0.00 | 0.00 | 0.00 | 52 | 1008.2 |
| 20260506033039 | 72 | 163 | 2.0 | 7.0 | 0.00 | 0.00 | 0.00 | 51 | 1008.0 |
| 20260506032528 | 72 | 0 | 2.0 | 7.0 | 0.00 | 0.00 | 0.00 | 50 | 1008.1 |
| 20260506032030 | 73 | 182 | 3.0 | 8.0 | 0.00 | 0.00 | 0.00 | 49 | 1008.0 |
| 20260506031537 | 73 | 184 | 3.0 | 8.0 | 0.00 | 0.00 | 0.00 | 48 | 1008.0 |
| 20260506031027 | 73 | 159 | 3.0 | 8.0 | 0.00 | 0.00 | 0.00 | 47 | 1007.9 |
| 20260506030531 | 73 | 165 | 1.0 | 8.0 | 0.00 | 0.00 | 0.00 | 46 | 1007.9 |
| 20260506030035 | 73 | 208 | 3.0 | 8.0 | 0.00 | 0.00 | 0.00 | 47 | 1007.9 |
| 20260506025531 | 74 | 172 | 2.0 | 7.0 | 0.00 | 0.00 | 0.00 | 46 | 1007.8 |
| 20260506025027 | 74 | 165 | 0.0 | 7.0 | 0.00 | 0.00 | 0.00 | 48 | 1007.8 |
| 20260506024536 | 74 | 183 | 1.0 | 6.0 | 0.00 | 0.00 | 0.00 | 47 | 1007.8 |
| 20260506024028 | 74 | 0 | 1.0 | 6.0 | 0.00 | 0.00 | 0.00 | 46 | 1007.8 |
| 20260506023549 | 74 | 225 | 2.0 | 6.0 | 0.00 | 0.00 | 0.00 | 45 | 1007.8 |
| 20260506023052 | 74 | 197 | 3.0 | 6.0 | 0.00 | 0.00 | 0.00 | 44 | 1007.8 |
| 20260506022528 | 74 | 157 | 1.0 | 5.0 | 0.00 | 0.00 | 0.00 | 45 | 1007.7 |
| 20260506022028 | 74 | 0 | 1.0 | 5.0 | 0.00 | 0.00 | 0.00 | 44 | 1007.8 |
| 20260506021539 | 74 | 130 | 0.0 | 4.0 | 0.00 | 0.00 | 0.00 | 42 | 1007.7 |
| 20260506021027 | 74 | 189 | 1.0 | 4.0 | 0.00 | 0.00 | 0.00 | 44 | 1007.6 |
| 20260506020529 | 74 | 186 | 1.0 | 5.0 | 0.00 | 0.00 | 0.00 | 44 | 1007.6 |
| 20260506020106 | 74 | 186 | 1.0 | 5.0 | 0.00 | 0.00 | 0.00 | 43 | 1007.7 |
| 20260506015529 | 74 | 186 | 1.0 | 7.0 | 0.00 | 0.00 | 0.00 | 41 | 1007.7 |
| 20260506015028 | 74 | 194 | 1.0 | 7.0 | 0.00 | 0.00 | 0.00 | 42 | 1007.6 |
| 20260506014536 | 74 | 190 | 1.0 | 4.0 | 0.00 | 0.00 | 0.00 | 42 | 1007.5 |
| 20260506014027 | 74 | 190 | 1.0 | 3.0 | 0.00 | 0.00 | 0.00 | 41 | 1007.5 |
| 20260506013529 | 74 | 210 | 0.0 | 4.0 | 0.00 | 0.00 | 0.00 | 41 | 1007.5 |
| 20260506013042 | 74 | 211 | 1.0 | 4.0 | 0.00 | 0.00 | 0.00 | 42 | 1007.3 |
| 20260506012527 | 74 | 220 | 1.0 | 3.0 | 0.00 | 0.00 | 0.00 | 41 | 1007.3 |
| 20260506012028 | 75 | 0 | 0.0 | 3.0 | 0.00 | 0.00 | 0.00 | 43 | 1007.3 |
| 20260506011537 | 75 | 232 | 0.0 | 3.0 | 0.00 | 0.00 | 0.00 | 43 | 1007.2 |
| 20260506011027 | 75 | 0 | 1.0 | 4.0 | 0.00 | 0.00 | 0.00 | 42 | 1007.2 |
| 20260506010531 | 75 | 0 | 1.0 | 4.0 | 0.00 | 0.00 | 0.00 | 40 | 1007.2 |
| 20260506010038 | 76 | 245 | 0.0 | 4.0 | 0.00 | 0.00 | 0.00 | 41 | 1007.1 |
| 20260506005529 | 75 | 245 | 1.0 | 4.0 | 0.00 | 0.00 | 0.00 | 39 | 1007.1 |
| 20260506005027 | 76 | 200 | 1.0 | 4.0 | 0.00 | 0.00 | 0.00 | 41 | 1007.1 |
| 20260506004542 | 76 | 184 | 0.0 | 3.0 | 0.00 | 0.00 | 0.00 | 39 | 1007.0 |
| 20260506004032 | 76 | 0 | 1.0 | 3.0 | 0.00 | 0.00 | 0.00 | 39 | 1007.0 |
| 20260506003532 | 76 | 0 | 0.0 | 7.0 | 0.00 | 0.00 | 0.00 | 40 | 1007.0 |
| 20260506003035 | 76 | 194 | 2.0 | 7.0 | 0.00 | 0.00 | 0.00 | 38 | 1007.0 |
| 20260506002527 | 76 | 180 | 1.0 | 5.0 | 0.00 | 0.00 | 0.00 | 38 | 1007.0 |
| 20260506002027 | 76 | 224 | 1.0 | 7.0 | 0.00 | 0.00 | 0.00 | 38 | 1006.8 |
| 20260506001548 | 76 | 0 | 2.0 | 7.0 | 0.00 | 0.00 | 0.00 | 38 | 1006.9 |
| 20260506001027 | 76 | 155 | 3.0 | 7.0 | 0.00 | 0.00 | 0.00 | 37 | 1006.7 |
| 20260506000528 | 77 | 217 | 2.0 | 6.0 | 0.00 | 0.00 | 0.00 | 39 | 1006.7 |
| 20260506000055 | 77 | 179 | 1.0 | 5.0 | 0.00 | 0.00 | 0.00 | 38 | 1006.7 |
| 20260505235528 | 77 | 214 | 2.0 | 5.0 | 0.00 | 0.00 | 0.00 | 38 | 1006.7 |
| 20260505235031 | 77 | 208 | 1.0 | 4.0 | 0.00 | 0.00 | 0.00 | 38 | 1006.6 |
| 20260505234541 | 77 | 213 | 2.0 | 4.0 | 0.00 | 0.00 | 0.00 | 38 | 1006.4 |
| 20260505234028 | 78 | 197 | 1.0 | 3.0 | 0.00 | 0.00 | 0.00 | 39 | 1006.4 |
| 20260505233527 | 78 | 0 | 0.0 | 6.0 | 0.00 | 0.00 | 0.00 | 37 | 1006.4 |
| 20260505233035 | 78 | 197 | 1.0 | 7.0 | 0.00 | 0.00 | 0.00 | 36 | 1006.2 |
| 20260505232529 | 78 | 199 | 2.0 | 8.0 | 0.00 | 0.00 | 0.00 | 37 | 1006.1 |
| 20260505232027 | 78 | 175 | 3.0 | 8.0 | 0.00 | 0.00 | 0.00 | 36 | 1006.1 |
| 20260505231551 | 78 | 189 | 1.0 | 10.0 | 0.00 | 0.00 | 0.00 | 36 | 1006.0 |
| 20260505231031 | 78 | 212 | 3.0 | 10.0 | 0.00 | 0.00 | 0.00 | 36 | 1006.0 |
| 20260505230528 | 79 | 169 | 2.0 | 7.0 | 0.00 | 0.00 | 0.00 | 35 | 1006.0 |
| 20260505230047 | 79 | 252 | 1.0 | 5.0 | 0.00 | 0.00 | 0.00 | 36 | 1005.9 |
| 20260505225527 | 79 | 250 | 1.0 | 4.0 | 0.00 | 0.00 | 0.00 | 36 | 1005.7 |
| 20260505225028 | 79 | 218 | 1.0 | 5.0 | 0.00 | 0.00 | 0.00 | 35 | 1005.6 |
| 20260505224545 | 79 | 218 | 1.0 | 6.0 | 0.00 | 0.00 | 0.00 | 35 | 1005.5 |
| 20260505224028 | 79 | 206 | 2.0 | 7.0 | 0.00 | 0.00 | 0.00 | 35 | 1005.4 |
| 20260505223527 | 79 | 180 | 3.0 | 7.0 | 0.00 | 0.00 | 0.00 | 35 | 1005.4 |
| 20260505223040 | 80 | 191 | 3.0 | 7.0 | 0.00 | 0.00 | 0.00 | 35 | 1005.4 |
| 20260505222527 | 80 | 217 | 2.0 | 7.0 | 0.00 | 0.00 | 0.00 | 36 | 1005.4 |
| 20260505222028 | 80 | 200 | 2.0 | 7.0 | 0.00 | 0.00 | 0.00 | 35 | 1005.3 |
| 20260505221544 | 80 | 168 | 2.0 | 6.0 | 0.00 | 0.00 | 0.00 | 35 | 1005.3 |
| 20260505221027 | 80 | 196 | 2.0 | 6.0 | 0.00 | 0.00 | 0.00 | 35 | 1005.2 |
| 20260505220528 | 80 | 212 | 2.0 | 11.0 | 0.00 | 0.00 | 0.00 | 34 | 1005.1 |
| 20260505220036 | 81 | 175 | 4.0 | 11.0 | 0.00 | 0.00 | 0.00 | 34 | 1005.2 |
| 20260505215530 | 81 | 281 | 3.0 | 7.0 | 0.00 | 0.00 | 0.00 | 34 | 1005.1 |
| 20260505215027 | 81 | 202 | 3.0 | 10.0 | 0.00 | 0.00 | 0.00 | 34 | 1005.1 |
| 20260505214546 | 81 | 196 | 2.0 | 10.0 | 0.00 | 0.00 | 0.00 | 34 | 1005.0 |
| 20260505214029 | 81 | 211 | 3.0 | 14.0 | 0.00 | 0.00 | 0.00 | 35 | 1004.9 |
| 20260505213527 | 81 | 201 | 4.0 | 14.0 | 0.00 | 0.00 | 0.00 | 33 | 1004.9 |
| 20260505213040 | 82 | 165 | 4.0 | 10.0 | 0.00 | 0.00 | 0.00 | 34 | 1005.0 |
| 20260505212529 | 82 | 198 | 3.0 | 7.0 | 0.00 | 0.00 | 0.00 | 34 | 1005.0 |
| 20260505212028 | 82 | 208 | 3.0 | 11.0 | 0.00 | 0.00 | 0.00 | 34 | 1005.0 |
| 20260505211607 | 82 | 202 | 3.0 | 11.0 | 0.00 | 0.00 | 0.00 | 32 | 1004.8 |
| 20260505211027 | 83 | 224 | 4.0 | 16.0 | 0.00 | 0.00 | 0.00 | 31 | 1004.9 |
| 20260505210527 | 83 | 174 | 6.0 | 16.0 | 0.00 | 0.00 | 0.00 | 32 | 1004.8 |
| 20260505210045 | 84 | 316 | 3.0 | 8.0 | 0.00 | 0.00 | 0.00 | 35 | 1004.8 |
| 20260505205531 | 84 | 198 | 3.0 | 9.0 | 0.00 | 0.00 | 0.00 | 34 | 1004.9 |
| 20260505205028 | 83 | 189 | 2.0 | 14.0 | 0.00 | 0.00 | 0.00 | 32 | 1004.8 |
| 20260505204546 | 83 | 252 | 3.0 | 14.0 | 0.00 | 0.00 | 0.00 | 33 | 1004.6 |
| 20260505204027 | 83 | 202 | 5.0 | 16.0 | 0.00 | 0.00 | 0.00 | 32 | 1004.9 |
| 20260505203527 | 83 | 156 | 4.0 | 16.0 | 0.00 | 0.00 | 0.00 | 33 | 1004.8 |
| 20260505203040 | 83 | 311 | 5.0 | 11.0 | 0.00 | 0.00 | 0.00 | 33 | 1004.8 |
| 20260505202527 | 83 | 199 | 4.0 | 10.0 | 0.00 | 0.00 | 0.00 | 33 | 1005.0 |
| 20260505202033 | 83 | 197 | 4.0 | 10.0 | 0.00 | 0.00 | 0.00 | 34 | 1005.0 |
| 20260505201540 | 83 | 186 | 5.0 | 12.0 | 0.00 | 0.00 | 0.00 | 35 | 1004.9 |
| 20260505201027 | 83 | 187 | 4.0 | 12.0 | 0.00 | 0.00 | 0.00 | 34 | 1005.1 |
| 20260505200528 | 83 | 225 | 4.0 | 15.0 | 0.00 | 0.00 | 0.00 | 35 | 1005.2 |
| 20260505200039 | 83 | 186 | 4.0 | 15.0 | 0.00 | 0.00 | 0.00 | 33 | 1005.2 |
| 20260505195527 | 83 | 222 | 4.0 | 12.0 | 0.00 | 0.00 | 0.00 | 34 | 1005.3 |
| 20260505195026 | 84 | 166 | 5.0 | 14.0 | 0.00 | 0.00 | 0.00 | 33 | 1005.1 |
| 20260505194538 | 84 | 208 | 4.0 | 14.0 | 0.00 | 0.00 | 0.00 | 34 | 1005.2 |
| 20260505194035 | 84 | 217 | 4.0 | 14.0 | 0.00 | 0.00 | 0.00 | 34 | 1005.3 |
| 20260505193529 | 84 | 174 | 4.0 | 14.0 | 0.00 | 0.00 | 0.00 | 34 | 1005.2 |
| 20260505193035 | 84 | 209 | 3.0 | 8.0 | 0.00 | 0.00 | 0.00 | 35 | 1005.4 |
| 20260505192531 | 84 | 198 | 3.0 | 8.0 | 0.00 | 0.00 | 0.00 | 34 | 1005.4 |
| 20260505192027 | 84 | 186 | 2.0 | 10.0 | 0.00 | 0.00 | 0.00 | 34 | 1005.6 |
| 20260505191541 | 84 | 205 | 4.0 | 10.0 | 0.00 | 0.00 | 0.00 | 35 | 1005.7 |
| 20260505191028 | 84 | 238 | 4.0 | 13.0 | 0.00 | 0.00 | 0.00 | 33 | 1005.5 |
| 20260505190530 | 84 | 203 | 6.0 | 13.0 | 0.00 | 0.00 | 0.00 | 32 | 1005.6 |
| 20260505190040 | 84 | 200 | 5.0 | 13.0 | 0.00 | 0.00 | 0.00 | 36 | 1005.7 |
| 20260505185527 | 83 | 204 | 4.0 | 13.0 | 0.00 | 0.00 | 0.00 | 36 | 1005.4 |
| 20260505185027 | 83 | 181 | 5.0 | 15.0 | 0.00 | 0.00 | 0.00 | 36 | 1005.6 |
| 20260505184542 | 83 | 138 | 7.0 | 15.0 | 0.00 | 0.00 | 0.00 | 35 | 1005.9 |
| 20260505184027 | 83 | 185 | 4.0 | 14.0 | 0.00 | 0.00 | 0.00 | 36 | 1005.9 |
| 20260505183531 | 83 | 188 | 5.0 | 14.0 | 0.00 | 0.00 | 0.00 | 34 | 1006.0 |
| 20260505183043 | 83 | 234 | 5.0 | 15.0 | 0.00 | 0.00 | 0.00 | 35 | 1006.2 |
| 20260505182527 | 83 | 133 | 6.0 | 15.0 | 0.00 | 0.00 | 0.00 | 35 | 1006.1 |
| 20260505182028 | 83 | 178 | 4.0 | 15.0 | 0.00 | 0.00 | 0.00 | 35 | 1006.4 |
| 20260505181544 | 83 | 240 | 5.0 | 17.0 | 0.00 | 0.00 | 0.00 | 38 | 1006.4 |
| 20260505181031 | 83 | 221 | 6.0 | 17.0 | 0.00 | 0.00 | 0.00 | 37 | 1006.3 |
| 20260505180528 | 82 | 173 | 4.0 | 14.0 | 0.00 | 0.00 | 0.00 | 37 | 1006.4 |
| 20260505180100 | 82 | 194 | 4.0 | 14.0 | 0.00 | 0.00 | 0.00 | 39 | 1006.3 |
| 20260505175528 | 82 | 312 | 4.0 | 13.0 | 0.00 | 0.00 | 0.00 | 40 | 1006.6 |
| 20260505175027 | 82 | 209 | 6.0 | 13.0 | 0.00 | 0.00 | 0.00 | 37 | 1006.5 |
| 20260505174540 | 82 | 186 | 6.0 | 15.0 | 0.00 | 0.00 | 0.00 | 40 | 1006.6 |
| 20260505174027 | 82 | 205 | 5.0 | 15.0 | 0.00 | 0.00 | 0.00 | 40 | 1006.7 |
| 20260505173526 | 82 | 204 | 5.0 | 12.0 | 0.00 | 0.00 | 0.00 | 41 | 1006.7 |
| 20260505173037 | 82 | 190 | 3.0 | 14.0 | 0.00 | 0.00 | 0.00 | 41 | 1006.5 |
| 20260505172529 | 81 | 182 | 3.0 | 14.0 | 0.00 | 0.00 | 0.00 | 40 | 1006.7 |
| 20260505172026 | 81 | 196 | 4.0 | 15.0 | 0.00 | 0.00 | 0.00 | 40 | 1006.6 |
| 20260505171540 | 81 | 280 | 3.0 | 15.0 | 0.00 | 0.00 | 0.00 | 40 | 1006.5 |
| 20260505171027 | 81 | 198 | 5.0 | 15.0 | 0.00 | 0.00 | 0.00 | 40 | 1006.6 |
| 20260505170531 | 81 | 174 | 4.0 | 14.0 | 0.00 | 0.00 | 0.00 | 43 | 1006.7 |
| 20260505170035 | 81 | 255 | 3.0 | 14.0 | 0.00 | 0.00 | 0.00 | 40 | 1006.7 |
| 20260505165527 | 80 | 173 | 5.0 | 12.0 | 0.00 | 0.00 | 0.00 | 40 | 1006.8 |
| 20260505165028 | 80 | 316 | 4.0 | 12.0 | 0.00 | 0.00 | 0.00 | 40 | 1006.8 |
| 20260505164535 | 80 | 225 | 5.0 | 11.0 | 0.00 | 0.00 | 0.00 | 41 | 1006.8 |
| 20260505164027 | 80 | 210 | 3.0 | 13.0 | 0.00 | 0.00 | 0.00 | 41 | 1007.0 |
| 20260505163529 | 80 | 260 | 4.0 | 13.0 | 0.00 | 0.00 | 0.00 | 42 | 1007.0 |
| 20260505163038 | 80 | 181 | 5.0 | 13.0 | 0.00 | 0.00 | 0.00 | 42 | 1007.3 |
| 20260505162527 | 79 | 185 | 2.0 | 10.0 | 0.00 | 0.00 | 0.00 | 43 | 1007.4 |
| 20260505162027 | 79 | 200 | 4.0 | 10.0 | 0.00 | 0.00 | 0.00 | 43 | 1007.6 |
| 20260505161537 | 79 | 213 | 4.0 | 11.0 | 0.00 | 0.00 | 0.00 | 44 | 1007.5 |
| 20260505161027 | 79 | 211 | 4.0 | 12.0 | 0.00 | 0.00 | 0.00 | 47 | 1007.7 |
| 20260505160531 | 78 | 208 | 5.0 | 12.0 | 0.00 | 0.00 | 0.00 | 45 | 1007.8 |
| 20260505153042 | 77 | 204 | 3.0 | 9.0 | 0.00 | 0.00 | 0.00 | 48 | 1007.8 |
| 20260505152528 | 77 | 236 | 3.0 | 9.0 | 0.00 | 0.00 | 0.00 | 50 | 1007.9 |
| 20260505152027 | 76 | 195 | 2.0 | 8.0 | 0.00 | 0.00 | 0.00 | 49 | 1007.8 |
| 20260505151541 | 76 | 192 | 4.0 | 8.0 | 0.00 | 0.00 | 0.00 | 49 | 1007.9 |
| 20260505151027 | 76 | 236 | 3.0 | 8.0 | 0.00 | 0.00 | 0.00 | 51 | 1008.0 |
| 20260505150527 | 75 | 200 | 3.0 | 8.0 | 0.00 | 0.00 | 0.00 | 52 | 1008.2 |
| 20260505140529 | 70 | 214 | 2.0 | 9.0 | 0.00 | 0.00 | 0.00 | 60 | 1008.8 |